Location: Darmstadt
(49.8706°N, 8.6494°E)
Time: 06:33:28
(UTC+01:00)

Cosmos 1408 - Pass Details

Date: 31 October 2020
Orbit: 470 x 492 km, 82.6° (Epoch: 03 December)

Event Time Altitude Azimuth Distance (km) Brightness Sun altitude
Rises 18:20:41 0° 352° (N) 2,562 6.3 -12.8°
Reaches altitude 10° 18:22:48 10° 355° (N) 1,681 5.3 -13.2°
Maximum altitude 18:26:28 67° 79° (E) 535 2.5 -13.8°
Drops below altitude 10° 18:30:07 10° 162° (SSE) 1,678 5.2 -14.3°
Sets 18:32:13 0° 165° (SSE) 2,557 6.1 -14.7°
